Home   Weather   Maastricht   Past weeks
Flag for Netherlands

Past Weather in Maastricht, Netherlands — Yesterday and Last 2 Weeks

Now
39 °F

Chilly.


Feels Like: 31 °F
Forecast: 46 / 40 °F
Wind: 15 mph from Southwest

Location: Maastricht Airport Zuid Limburg

Current Time: Nov 12, 2019 at 3:50:58 am

Latest Report: Nov 12, 2019 at 2:55 am


Visibility: N/A

Pressure: 29.62 "Hg

Humidity: 87%

Dew Point: 36 °F

Location of MaastrichtLocation

Past Weather in Maastricht — Graph

°F

Maastricht Temperature Yesterday

Maximum temperature yesterday: 46 °F (at 10:55 am)
Minimum temperature yesterday: 34 °F (at 12:25 am)
Average temperature yesterday: 42 °F

High & Low Weather Summary for the Past Weeks

 TemperatureHumidityPressure
High59 °F (Nov 2, 9:55 am)100% (Oct 28, 2:25 am)30.33 "Hg (Oct 28, 2:25 am)
Low30 °F (Nov 10, 5:55 am)58% (Oct 28, 2:25 pm)29.03 "Hg (Nov 3, 1:55 pm)
Average45 °F87%29.69 "Hg
* Reported Oct 28 2:25 am — Nov 12 2:25 am, Maastricht. Weather by CustomWeather, © 2019

Note: Actual official high and low records may vary slightly from our data, if they occured in-between our weather recording intervals... More about our weather records

Advertising

Maastricht Weather History for the Previous 24 Hours

Scroll right to see more
 ConditionsComfort  
Time TempWeatherWind HumidityBarometerVisibility
2:25 am
Tue, Nov 12
39 °FClear.16 mph93%29.62 "HgN/A
1:55 am39 °FPassing clouds.16 mph87%29.62 "HgN/A
1:25 am41 °FClear.16 mph81%29.62 "HgN/A
12:55 am41 °FQuite cool.15 mph87%29.62 "HgN/A
12:25 am41 °FPassing clouds.13 mph87%29.62 "HgN/A
11:55 pm
Mon, Nov 11
41 °FOvercast.14 mph87%29.62 "HgN/A
11:25 pm41 °FOvercast.13 mph93%29.62 "HgN/A
10:55 pm41 °FPassing clouds.15 mph93%29.62 "HgN/A
10:25 pm41 °FPassing clouds.14 mph93%29.62 "HgN/A
9:55 pm41 °FPartly cloudy.12 mph93%29.62 "HgN/A
9:25 pm41 °FMostly cloudy.13 mph93%29.62 "HgN/A
8:55 pm41 °FOvercast.13 mph93%29.59 "HgN/A
8:25 pm41 °FPartly cloudy.15 mph93%29.59 "HgN/A
7:55 pm41 °FMostly cloudy.14 mph93%29.59 "HgN/A
7:25 pm43 °FPartly cloudy.16 mph87%29.59 "HgN/A
6:55 pm41 °FPartly cloudy.15 mph93%29.59 "HgN/A
6:25 pm41 °FPartly cloudy.15 mph93%29.59 "HgN/A
5:55 pm41 °FPassing clouds.15 mph93%29.59 "HgN/A
5:25 pm41 °FDrizzle. Mostly cloudy.17 mph93%29.56 "HgN/A
4:55 pm43 °FDrizzle. Mostly cloudy.16 mph87%29.56 "HgN/A
4:25 pm43 °FLight rain. Broken clouds.22 mph87%29.56 "HgN/A
3:55 pm43 °FSprinkles. More clouds than sun.18 mph93%29.56 "HgN/A
3:25 pm45 °FDrizzle. Partly sunny.21 mph81%29.56 "HgN/A
2:55 pm46 °FDrizzle. Partly sunny.23 mph76%29.56 "HgN/A
2:25 pm46 °FMostly cloudy.20 mph76%29.59 "HgN/A
1:55 pm46 °FBroken clouds.17 mph76%29.59 "HgN/A
1:25 pm46 °FPassing clouds.20 mph71%29.59 "HgN/A
12:55 pm46 °FOvercast.22 mph71%29.62 "HgN/A
12:25 pm46 °FBroken clouds.22 mph71%29.65 "HgN/A
11:55 am46 °FMore clouds than sun.20 mph71%29.65 "HgN/A
11:25 am45 °FMostly cloudy.14 mph76%29.68 "HgN/A
10:55 am46 °FMostly cloudy.14 mph76%29.68 "HgN/A
10:25 am45 °FPartly sunny.16 mph76%29.68 "HgN/A
9:55 am43 °FClear.13 mph81%29.71 "HgN/A
9:25 am43 °FOvercast.10 mph81%29.74 "HgN/A
8:55 am41 °FOvercast.10 mph87%29.74 "HgN/A
8:25 am41 °FOvercast.12 mph81%29.77 "HgN/A
7:55 am41 °FOvercast.10 mph87%29.77 "HgN/A
7:25 am41 °FOvercast.10 mph87%29.77 "HgN/A
6:55 am41 °FOvercast.12 mph87%29.77 "HgN/A
6:25 am43 °FPassing clouds.12 mph81%29.80 "HgN/A
5:55 am43 °FOvercast.12 mph81%29.80 "HgN/A
5:25 am41 °FOvercast.13 mph87%29.83 "HgN/A
4:55 am41 °FOvercast.10 mph87%29.86 "HgN/A
4:25 am39 °FMostly cloudy.10 mph93%29.86 "HgN/A
3:55 am39 °FOvercast.9 mph93%29.86 "HgN/A
3:25 am39 °FOvercast.8 mph87%29.89 "HgN/A
Weather by CustomWeather, © 2019

See weather overview